This is the latest recevied weather packets stored in our database for station/object OH2HCY-3. If no packets are shown the sender has not sent any weather packets the latest 10 day(s).
| Time | Temp. | Humidity | Pressure | Rain* | Wind** | Luminosity | Snow |
|---|---|---|---|---|---|---|---|
| 1778053281 | 8.89° C | 37% | 1013.3 hPa | - | - | - | - |
| 1778051097 | - | - | - | - | - | - | - |
| 1778051096 | 8.33° C | 43% | 1013.2 hPa | - | - | - | - |
| 1778050031 | 7.78° C | 48% | 1013 hPa | - | - | - | - |
| 1778048942 | 7.22° C | 50% | 1013.1 hPa | - | - | - | - |
| 1778047791 | 6.67° C | 56% | 1013 hPa | - | - | - | - |
| 1778046706 | 6.11° C | 58% | 1012.8 hPa | - | - | - | - |
| 1778045660 | 6.11° C | 61% | 1012.6 hPa | - | - | - | - |
| 1778044518 | 5° C | - | - | - | - | - | - |
| 1778044512 | 5° C | 64% | 1012.5 hPa | - | - | - | - |
| 1778043356 | 5° C | 68% | 1012.2 hPa | - | - | - | - |
| 1778042286 | 3.89° C | 71% | 1012.1 hPa | - | - | - | - |
| 1778041221 | 3.33° C | 74% | 1011.9 hPa | - | - | - | - |
| 1778040171 | 2.78° C | 78% | 1011.7 hPa | - | - | - | - |
| 1778039122 | 1.67° C | 83% | 1011.7 hPa | - | - | - | - |
| 1778038008 | 0° C | - | 1011.5 hPa | - | - | - | - |
| 1778038007 | 0° C | 85% | 1011.5 hPa | - | - | - | - |
| 1778036835 | -0.56° C | 86% | 1011.3 hPa | - | - | - | - |
| 1778035740 | -1.11° C | 85% | 1011.1 hPa | - | - | - | - |
| 1778034596 | -1.11° C | 85% | 1011 hPa | - | - | - | - |
| 1778033639 | -1.11° C | 85% | - | - | - | - | - |
| 1778033636 | -1.11° C | 85% | 1010.8 hPa | - | - | - | - |
| 1778032471 | -1.11° C | 84% | 1010.7 hPa | - | - | - | - |
| 1778031428 | -1.11° C | 84% | 1010.5 hPa | - | - | - | - |
| 1778030388 | -1.11° C | 84% | 1010.4 hPa | - | - | - | - |
* Rain since midnight (hover to see other rain measurements)
** Current wind speed in m/s (hover to see current wind gust speed)